Weather History for Barking Sands, HI

Change the Weather History Date:

Wednesday, May 1, 2013

  Actual Average Record
Temperature  
Mean Temperature 76 °F -  
Max Temperature 82 °F 85 °F 87 °F (1966)
Min Temperature 70 °F 63 °F 60 °F (1951)
Cooling Degree Days 11    
Growing Degree Days 26 (Base 50)    
Moisture  
Dew Point 68 °F    
Average Humidity 74    
Maximum Humidity 87    
Minimum Humidity 63    
Precipitation  
Precipitation 0.00 in - - ()
Sea Level Pressure  
Sea Level Pressure 30.03 in    
Wind  
Wind Speed 5 mph (North)    
Max Wind Speed 13 mph    
Max Gust Speed -    
Visibility 10 miles    
Events      
Averages and records for this station are not official NWS values.
T = Trace of Precipitation, MM = Missing Value Source: NWS Daily Summary

Daily Weather History Graph

Daily Weather History Graph

Search for Another Location

Airport:

Trip Planner

Search our weather history database for the weather conditions in past years. The results will help you decide how hot, cold, wet, or windy it might be!

Date:

Astronomy

May. 01, 2013 Rise Set
Actual Time 6:07 AM HST 7:05 PM HST
Civil Twilight 5:43 AM HST 7:28 PM HST
Nautical Twilight 5:16 AM HST 7:56 PM HST
Astronomical Twilight 4:47 AM HST 8:25 PM HST
Moon 12:22 AM HST (5/1) 11:57 AM HST (5/1)
Length of Visible Light 13h 45m
Length of Day
12h 58m
Waning Gibbous, 56% of the Moon is Illuminated
May 1
Waning Gibbous
May 2
Last Quarter
May 9
New
May 17
First Quarter
May 24
Full

Hourly Weather History & Observations

Time (HST) Temp. Heat Index Dew Point Humidity Pressure Visibility Wind Dir Wind Speed Gust Speed Precip Events Conditions
12:56 AM 72.0 °F - 66.9 °F 84% 30.02 in 10.0 mi ENE 3.5 mph - N/A   Overcast
1:56 AM 73.0 °F - 66.0 °F 79% 30.01 in 10.0 mi ENE 3.5 mph - N/A   Overcast
2:56 AM 73.0 °F - 66.9 °F 81% 30.00 in 10.0 mi ESE 3.5 mph - N/A   Overcast
3:56 AM 71.1 °F - 64.0 °F 78% 29.99 in 10.0 mi East 4.6 mph - N/A   Clear
4:56 AM 71.1 °F - 64.0 °F 78% 29.99 in 10.0 mi ENE 4.6 mph - N/A   Clear
5:56 AM 70.0 °F - 64.0 °F 81% 30.01 in 10.0 mi ENE 4.6 mph - N/A   Clear
6:56 AM 72.0 °F - 64.9 °F 78% 30.03 in 10.0 mi Calm Calm - N/A   Clear
7:56 AM 77.0 °F - 66.9 °F 71% 30.04 in 10.0 mi NNW 4.6 mph - N/A   Clear
8:56 AM 78.1 °F - 68.0 °F 71% 30.05 in 10.0 mi WNW 5.8 mph - N/A   Clear
9:56 AM 77.0 °F - 69.1 °F 76% 30.07 in 10.0 mi West 3.5 mph - N/A   Partly Cloudy
10:56 AM 80.1 °F 83.2 °F 70.0 °F 71% 30.05 in 10.0 mi WNW 5.8 mph - N/A   Clear
11:56 AM 79.0 °F - 71.1 °F 77% 30.05 in 10.0 mi WNW 5.8 mph - N/A   Overcast
12:56 PM 81.0 °F 84.9 °F 71.1 °F 72% 30.03 in 10.0 mi West 6.9 mph - N/A   Mostly Cloudy
1:56 PM 82.9 °F 86.5 °F 69.1 °F 63% 30.01 in 10.0 mi Variable 3.5 mph - N/A   Mostly Cloudy
2:11 PM 80.6 °F 83.9 °F 69.8 °F 70% 30.00 in 10.0 mi North 3.5 mph - N/A   Mostly Cloudy
2:24 PM 80.6 °F 83.9 °F 69.8 °F 70% 30.00 in 10.0 mi WNW 5.8 mph - N/A   Overcast
2:46 PM 82.4 °F 86.3 °F 69.8 °F 66% 29.99 in 10.0 mi NNW 9.2 mph - N/A   Overcast
2:56 PM 82.0 °F 85.5 °F 69.1 °F 65% 30.00 in 10.0 mi Variable 4.6 mph - N/A   Overcast
3:35 PM 80.6 °F 83.2 °F 68.0 °F 65% 29.99 in 10.0 mi Variable 3.5 mph - N/A   Overcast
3:56 PM 80.1 °F 82.3 °F 66.9 °F 64% 30.00 in 10.0 mi North 4.6 mph - N/A   Overcast
4:09 PM 80.6 °F 83.2 °F 68.0 °F 65% 29.99 in 10.0 mi Variable 3.5 mph - N/A   Overcast
4:17 PM 78.8 °F - 69.8 °F 74% 30.00 in 10.0 mi West 4.6 mph - N/A   Overcast
4:56 PM 79.0 °F - 68.0 °F 69% 30.00 in 10.0 mi South 6.9 mph - N/A   Overcast
5:34 PM 78.8 °F - 68.0 °F 69% 30.00 in 10.0 mi NW 3.5 mph - N/A   Overcast
5:56 PM 79.0 °F - 69.1 °F 72% 30.01 in 10.0 mi North 12.7 mph - N/A   Overcast
6:56 PM 77.0 °F - 69.1 °F 76% 30.02 in 10.0 mi NNE 11.5 mph - N/A   Overcast
7:56 PM 77.0 °F - 69.1 °F 76% 30.04 in 10.0 mi NNE 9.2 mph - N/A   Overcast
8:33 PM 77.0 °F - 69.8 °F 78% 30.05 in 10.0 mi NNW 8.1 mph - N/A   Overcast
8:56 PM 77.0 °F - 69.1 °F 76% 30.06 in 10.0 mi NNW 6.9 mph - N/A   Overcast
9:05 PM 77.0 °F - 69.8 °F 78% 30.06 in 10.0 mi NNW 6.9 mph - N/A   Overcast
9:14 PM 77.0 °F - 69.8 °F 78% 30.06 in 10.0 mi NNW 5.8 mph - N/A   Overcast
9:56 PM 75.9 °F - 68.0 °F 76% 30.07 in 10.0 mi Calm Calm - N/A   Mostly Cloudy
10:56 PM 73.0 °F - 66.9 °F 81% 30.09 in 10.0 mi ESE 5.8 mph - N/A   Scattered Clouds
11:56 PM 71.1 °F - 66.9 °F 87% 30.07 in 10.0 mi East 3.5 mph - N/A   Clear